H1 CPF 2 NER 2025 9 13 9 256 01 glonass140 H2 1903001 9140 44299 2025 9 13 0 0 0 2025 9 16 23 45 0 900 1 1 0 0 0 1 H9 10 0 60931 0.00000 0 2391788.147 13296347.762 -21611736.045 10 0 60931 900.00000 0 -2754.084 11991373.790 -22487890.717 10 0 60931 1800.00000 0 -2559376.267 10829596.399 -22926159.417 10 0 60931 2700.00000 0 -5218102.584 9846006.222 -22917955.016 10 0 60931 3600.00000 0 -7913516.895 9064657.680 -22463402.338 10 0 60931 4500.00000 0 -10577261.108 8497749.576 -21571338.468 10 0 60931 5400.00000 0 -13140665.868 8145223.739 -20259141.095 10 0 60931 6300.00000 0 -15537403.808 7994898.230 -18552388.125 10 0 60931 7200.00000 0 -17706054.456 8023128.772 -16484355.200 10 0 60931 8100.00000 0 -19592473.560 8195969.564 -14095361.056 10 0 60931 9000.00000 0 -21151867.789 8470783.276 -11431973.825 10 0 60931 9900.00000 0 -22350488.159 8798230.880 -8546094.312 10 0 60931 10800.00000 0 -23166871.796 9124555.741 -5493934.845 10 0 60931 11700.00000 0 -23592580.801 9394063.888 -2334914.491 10 0 60931 12600.00000 0 -23632408.440 9551694.189 869506.791 10 0 60931 13500.00000 0 -23304045.519 9545568.459 4057031.354 10 0 60931 14400.00000 0 -22637222.728 9329412.741 7165740.108 10 0 60931 15300.00000 0 -21672366.787 8864746.737 10135297.392 10 0 60931 16200.00000 0 -20458828.650 8122748.631 12908120.686 10 0 60931 17100.00000 0 -19052759.654 7085716.560 15430492.431 10 0 60931 18000.00000 0 -17514725.874 5748065.322 17653592.763 10 0 60931 18900.00000 0 -15907161.347 4116816.604 19534433.957 10 0 60931 19800.00000 0 -14291766.856 2211562.262 21036679.605 10 0 60931 20700.00000 0 -12726962.673 63902.127 22131334.026 10 0 60931 21600.00000 0 -11265500.702 -2283620.552 22797290.024 10 0 60931 22500.00000 0 -9952334.436 -4779042.404 23021725.803 10 0 60931 23400.00000 0 -8822834.021 -7362899.645 22800344.514 10 0 60931 24300.00000 0 -7901419.367 -9970465.843 22137452.678 10 0 60931 25200.00000 0 -7200666.797 -12534216.519 21045876.369 10 0 60931 26100.00000 0 -6720925.358 -14986420.063 19546716.741 10 0 60931 27000.00000 0 -6450457.980 -17261749.239 17668949.151 10 0 60931 27900.00000 0 -6366101.106 -19299806.486 15448872.739 10 0 60931 28800.00000 0 -6434415.135 -21047459.397 12929419.966 10 0 60931 29700.00000 0 -6613277.670 -22460890.211 10159338.181 10 0 60931 30600.00000 0 -6853853.068 -23507274.474 7192257.702 10 0 60931 31500.00000 0 -7102855.927 -24166018.922 4085663.304 10 0 60931 32400.00000 0 -7305013.511 -24429506.606 899788.059 10 0 60931 33300.00000 0 -7405623.391 -24303317.491 -2303549.695 10 0 60931 34200.00000 0 -7353098.073 -23805914.524 -5462143.979 10 0 60931 35100.00000 0 -7101388.494 -22967807.527 -8514610.138 10 0 60931 36000.00000 0 -6612182.900 -21830229.207 -11401581.367 10 0 60931 36900.00000 0 -5856786.715 -20443378.323 -14066868.966 10 0 60931 37800.00000 0 -4817602.221 -18864303.381 -16458563.103 10 0 60931 38700.00000 0 -3489143.520 -17154515.616 -18530051.930 10 0 60931 39600.00000 0 -1878541.825 -15377431.604 -20240938.429 10 0 60931 40500.00000 0 -5517.631 -13595753.174 -21557836.474 10 0 60931 41400.00000 0 2098181.198 -11868894.970 -22455029.976 10 0 60931 42300.00000 0 4389853.650 -10250568.085 -22914981.730 10 0 60931 43200.00000 0 6817388.656 -8786621.510 -22928681.605 10 0 60931 44100.00000 0 9321213.657 -7513232.236 -22495826.930 10 0 60931 45000.00000 0 11836567.914 -6455520.018 -21624831.235 10 0 60931 45900.00000 0 14296005.997 -5626644.739 -20332660.969 10 0 60931 46800.00000 0 16632026.963 -5027423.803 -18644503.237 10 0 60931 47700.00000 0 18779719.192 -4646484.832 -16593271.011 10 0 60931 48600.00000 0 20679310.066 -4460946.113 -14218955.644 10 0 60931 49500.00000 0 22278513.630 -4437594.756 -11567839.597 10 0 60931 50400.00000 0 23534577.758 -4534511.267 -8691585.318 10 0 60931 51300.00000 0 24415945.216 -4703070.247 -5646218.744 10 0 60931 52200.00000 0 24903459.366 -4890230.883 -2491028.131 10 0 60931 53100.00000 0 24991064.699 -5041018.745 712599.291 10 0 60931 54000.00000 0 24685973.910 -5101092.387 3902379.207 10 0 60931 54900.00000 0 24008295.880 -5019284.978 7016346.325 10 0 60931 55800.00000 0 22990141.793 -4750012.569 9994060.329 10 0 60931 56700.00000 0 21674248.479 -4255446.694 12777777.817 10 0 60931 57600.00000 0 20112178.239 -3507359.374 15313567.472 10 0 60931 58500.00000 0 18362171.784 -2488562.742 17552347.158 10 0 60931 59400.00000 0 16486744.957 -1193882.916 19450823.625 10 0 60931 60300.00000 0 14550130.015 369372.663 20972317.741 10 0 60931 61200.00000 0 12615668.049 2181473.926 22087460.599 10 0 60931 62100.00000 0 10743260.563 4210850.660 22774748.487 10 0 60931 63000.00000 0 8986985.160 6415174.986 23020947.374 10 0 60931 63900.00000 0 7392973.130 8742899.591 22821340.282 10 0 60931 64800.00000 0 5997635.589 11135188.907 22179813.625 10 0 60931 65700.00000 0 4826310.352 13528164.482 21108781.299 10 0 60931 66600.00000 0 3892384.375 15855372.919 19628947.971 10 0 60931 67500.00000 0 3196927.120 18050375.562 17768915.681 10 0 60931 68400.00000 0 2728849.260 20049353.975 15564640.516 10 0 60931 69300.00000 0 2465579.616 21793624.169 13058748.706 10 0 60931 70200.00000 0 2374231.825 23231955.995 10299724.121 10 0 60931 71100.00000 0 2413211.918 24322601.573 7340981.502 10 0 60931 72000.00000 0 2534199.526 25034948.254 4239842.238 10 0 60931 72900.00000 0 2684419.599 25350726.693 1056431.547 10 0 60931 73800.00000 0 2809108.997 25264722.854 -2147482.276 10 0 60931 74700.00000 0 2854073.766 24784963.149 -5309684.299 10 0 60931 75600.00000 0 2768228.621 23932363.908 -8368721.886 10 0 60931 76500.00000 0 2506010.470 22739858.805 -11265102.369 10 0 60931 77400.00000 0 2029562.777 21251039.907 -13942455.613 10 0 60931 78300.00000 0 1310596.858 19518368.608 -16348638.219 10 0 60931 79200.00000 0 331849.675 17601031.001 -18436757.154 10 0 60931 80100.00000 0 -911925.448 15562527.425 -20166092.077 10 0 60931 81000.00000 0 -2413479.018 13468097.223 -21502897.740 10 0 60931 81900.00000 0 -4153118.797 11382086.819 -22421070.187 10 0 60931 82800.00000 0 -6099296.094 9365371.677 -22902663.223 10 0 60931 83700.00000 0 -8209702.005 7472940.378 -22938244.645 10 0 60931 84600.00000 0 -10432828.966 5751742.202 -22527084.911 10 0 60931 85500.00000 0 -12709933.174 4238888.427 -21677174.274 10 0 60932 0.00000 0 -14977316.083 2960282.597 -20405067.947 10 0 60932 900.00000 0 -17168830.940 1929736.048 -18735561.451 10 0 60932 1800.00000 0 -19218506.324 1148606.659 -16701204.227 10 0 60932 2700.00000 0 -21063180.608 605972.560 -14341658.914 10 0 60932 3600.00000 0 -22645033.620 279333.805 -11702920.665 10 0 60932 4500.00000 0 -23913910.180 135810.025 -8836411.682 10 0 60932 5400.00000 0 -24829337.715 133781.775 -5797969.427 10 0 60932 6300.00000 0 -25362153.276 224904.352 -2646749.102 10 0 60932 7200.00000 0 -25495671.991 356407.053 555937.191 10 0 60932 8100.00000 0 -25226348.553 473578.892 3747820.991 10 0 60932 9000.00000 0 -24563904.976 522334.169 6866893.465 10 0 60932 9900.00000 0 -23530920.462 451748.187 9852612.399 10 0 60932 10800.00000 0 -22161901.974 216455.206 12647076.335 10 0 60932 11700.00000 0 -20501875.780 -221193.084 15196143.024 10 0 60932 12600.00000 0 -18604560.165 -889299.672 17450470.797 10 0 60932 13500.00000 0 -16530196.535 -1805001.742 19366463.445 10 0 60932 14400.00000 0 -14343129.908 -2973517.117 20907101.427 10 0 60932 15300.00000 0 -12109239.625 -4387697.357 22042644.591 10 0 60932 16200.00000 0 -9893326.671 -6028106.260 22751194.311 10 0 60932 17100.00000 0 -7756565.213 -7863620.685 23019105.524 10 0 60932 18000.00000 0 -5754122.865 -9852529.238 22841241.917 10 0 60932 18900.00000 0 -3933046.880 -11944083.940 22221070.204 10 0 60932 19800.00000 0 -2330502.270 -14080441.598 21170592.136 10 0 60932 20700.00000 0 -972433.466 -16198915.560 19710115.568 10 0 60932 21600.00000 0 127296.358 -18234445.805 17867868.562 10 0 60932 22500.00000 0 967253.608 -20122186.182 15679463.153 10 0 60932 23400.00000 0 1558256.556 -21800102.439 13187218.036 10 0 60932 24300.00000 0 1922679.472 -23211473.887 10439351.982 10 0 60932 25200.00000 0 2093267.924 -24307194.986 7489062.267 10 0 60932 26100.00000 0 2111514.903 -25047780.918 4393504.778 10 0 60932 27000.00000 0 2025665.880 -25404992.989 1212694.547 10 0 60932 27900.00000 0 1888436.697 -25363015.128 -1991652.674 10 0 60932 28800.00000 0 1754540.559 -24919131.106 -5157315.659 10 0 60932 29700.00000 0 1678128.833 -24083872.823 -8222776.581 10 0 60932 30600.00000 0 1710254.376 -22880632.091 -11128419.808 10 0 60932 31500.00000 0 1896465.588 -21344750.895 -13817696.736 10 0 60932 32400.00000 0 2274634.163 -19522127.146 -16238233.373 10 0 60932 33300.00000 0 2873109.904 -17467393.485 -18342858.388 10 0 60932 34200.00000 0 3709282.335 -15241744.847 -20090530.837 10 0 60932 35100.00000 0 4788611.685 -12910505.439 -21447148.790 10 0 60932 36000.00000 0 6104172.051 -10540536.830 -22386222.513 10 0 60932 36900.00000 0 7636727.816 -8197595.712 -22889398.497 10 0 60932 37800.00000 0 9355341.767 -5943751.941 -22946823.692 10 0 60932 38700.00000 0 11218490.787 -3834974.961 -22557342.470 10 0 60932 39600.00000 0 13175643.329 -1918989.590 -21728522.145 10 0 60932 40500.00000 0 15169233.193 -233490.697 -20476506.355 10 0 60932 41400.00000 0 17136947.179 1195208.937 -18825698.999 10 0 60932 42300.00000 0 19014230.636 2353041.640 -16808284.887 10 0 60932 43200.00000 0 20736905.553 3238523.637 -14463596.598 10 0 60932 44100.00000 0 22243790.895 3862556.813 -11837340.181 10 0 60932 45000.00000 0 23479214.647 4247703.465 -8980695.359 10 0 60932 45900.00000 0 24395311.620 4426966.568 -5949308.475 10 0 60932 46800.00000 0 24954010.180 4442129.053 -2802198.680 10 0 60932 47700.00000 0 25128624.367 4341724.301 399400.300 10 0 60932 48600.00000 0 24904984.739 4178725.592 3593239.252 10 0 60932 49500.00000 0 24282061.019 4008053.940 6717269.208 10 0 60932 50400.00000 0 23272051.233 3884011.071 9710849.371 10 0 60932 51300.00000 0 21899934.639 3857747.097 12515923.357 10 0 60932 52200.00000 0 20202508.293 3974870.405 15078140.850 10 0 60932 53100.00000 0 18226948.586 4273300.846 17347903.220 10 0 60932 54000.00000 0 16028958.725 4781456.552 19281313.548 10 0 60932 54900.00000 0 13670579.861 5516850.342 20841013.786 10 0 60932 55800.00000 0 11217757.148 6485154.311 21996894.105 10 0 60932 56700.00000 0 8737761.484 7679771.487 22726662.163 10 0 60932 57600.00000 0 6296573.146 9081932.426 23016262.681 10 0 60932 58500.00000 0 3956334.605 10661312.924 22860140.421 10 0 60932 59400.00000 0 1772976.555 12377147.631 22261342.376 10 0 60932 60300.00000 0 -205886.162 14179794.107 21231457.694 10 0 60932 61200.00000 0 -1942703.181 16012683.361 19790396.525 10 0 60932 62100.00000 0 -3411310.863 17814577.026 17966011.662 10 0 60932 63000.00000 0 -4597774.566 19522038.621 15793569.442 10 0 60932 63900.00000 0 -5500716.955 21072017.222 13315079.072 10 0 60932 64800.00000 0 -6131119.339 22404436.864 10578492.044 10 0 60932 65700.00000 0 -6511604.789 23464684.308 7636785.803 10 0 60932 66600.00000 0 -6675233.116 24205891.398 4546948.210 10 0 60932 67500.00000 0 -6663858.318 24590916.332 1368881.489 10 0 60932 68400.00000 0 -6526117.451 24593940.115 -1835753.847 10 0 60932 69300.00000 0 -6315135.632 24201610.188 -5004732.990 10 0 60932 70200.00000 0 -6086044.157 23413681.862 -8076475.617 10 0 60932 71100.00000 0 -5893416.906 22243129.061 -10991245.735 10 0 60932 72000.00000 0 -5788734.089 20715718.146 -13692318.737 10 0 60932 72900.00000 0 -5817981.499 18869061.164 -16127092.324 10 0 60932 73800.00000 0 -6019488.028 16751186.906 -18248118.957 10 0 60932 74700.00000 0 -6422094.283 14418688.607 -20014038.948 10 0 60932 75600.00000 0 -7043731.289 11934525.073 -21390395.330 10 0 60932 76500.00000 0 -7890470.928 9365566.746 -22350313.994 10 0 60932 77400.00000 0 -8956089.821 6779989.096 -22875035.256 10 0 60932 78300.00000 0 -10222166.539 4244622.180 -22954286.076 10 0 60932 79200.00000 0 -11658709.395 1822367.094 -22586485.243 10 0 60932 80100.00000 0 -13225289.444 -430212.754 -21778777.260 10 0 60932 81000.00000 0 -14872631.774 -2465025.028 -20546894.021 10 0 60932 81900.00000 0 -16544598.613 -4244217.687 -18914846.843 10 0 60932 82800.00000 0 -18180480.911 -5741510.568 -16914454.852 10 0 60932 83700.00000 0 -19717501.844 -6943034.515 -14584719.051 10 0 60932 84600.00000 0 -21093426.520 -7847644.144 -11971054.567 10 0 60932 85500.00000 0 -22249167.485 -8466692.664 -9124396.576 10 0 60933 0.00000 0 -23131275.749 -8823280.130 -6100198.325 10 0 60933 900.00000 0 -23694212.356 -8951009.004 -2957339.980 10 0 60933 1800.00000 0 -23902303.436 -8892301.265 243025.344 10 0 60933 2700.00000 0 -23731297.938 -8696350.842 3438670.290 10 0 60933 3600.00000 0 -23169461.452 -8416799.328 6567508.438 10 0 60933 4500.00000 0 -22218161.158 -8109235.027 9568803.150 10 0 60933 5400.00000 0 -20891917.933 -7828622.261 12384345.869 10 0 60933 6300.00000 0 -19217924.237 -7626770.253 14959580.924 10 0 60933 7200.00000 0 -17235048.822 -7549948.791 17244655.290 10 0 60933 8100.00000 0 -14992370.537 -7636751.068 19195373.711 10 0 60933 9000.00000 0 -12547302.810 -7916293.309 20774041.715 10 0 60933 9900.00000 0 -9963387.004 -8406826.298 21950181.522 10 0 60933 10800.00000 0 -7307846.021 -9114816.490 22701108.422 10 0 60933 11700.00000 0 -4648998.861 -10034534.795 23012357.873 10 0 60933 12600.00000 0 -2053642.192 -11148170.008 22877956.278 10 0 60933 13500.00000 0 415494.137 -12426462.329 22300531.116 10 0 60933 14400.00000 0 2702113.971 -13829831.054 21291258.809 10 0 60933 15300.00000 0 4758447.804 -15309950.206 19869651.377 10 0 60933 16200.00000 0 6546986.756 -16811707.557 18063185.616 10 0 60933 17100.00000 0 8041787.127 -18275466.551 15906781.151 10 0 60933 18000.00000 0 9229292.442 -19639537.979 13442136.381 10 0 60933 18900.00000 0 10108639.692 -20842759.268 10716933.892 10 0 60933 19800.00000 0 10691437.476 -21827074.350 7783929.358 10 0 60933 20700.00000 0 11001025.596 -22540006.515 4699940.402 10 0 60933 21600.00000 0 11071247.152 -22936920.560 1524753.980 10 0 60933 22500.00000 0 10944784.636 -22982978.810 -1680027.289 10 0 60933 23400.00000 0 10671129.944 -22654707.833 -4852177.814 10 0 60933 24300.00000 0 10304273.872 -21941108.700 -7930057.649 10 0 60933 25200.00000 0 9900212.785 -20844262.408 -10853813.366 10 0 60933 26100.00000 0 9514378.183 -19379403.268 -13566547.263 10 0 60933 27000.00000 0 9199098.493 -17574455.334 -16015431.572 10 0 60933 27900.00000 0 9001201.262 -15469049.608 -18152745.247 10 0 60933 28800.00000 0 8959858.287 -13113061.786 -19936812.338 10 0 60933 29700.00000 0 9104765.969 -10564730.568 -21332823.021 10 0 60933 30600.00000 0 9454739.139 -7888434.366 -22313520.612 10 0 60933 31500.00000 0 10016779.055 -5152218.795 -22859740.634 10 0 60933 32400.00000 0 10785656.188 -2425177.869 -22960790.960 10 0 60933 33300.00000 0 11744026.490 225201.947 -22614665.252 10 0 60933 34200.00000 0 12863077.192 2735624.028 -21828085.203 10 0 60933 35100.00000 0 14103675.529 5049382.526 -20616370.543 10 0 60933 36000.00000 0 15417972.388 7118481.946 -19003139.197 10 0 60933 36900.00000 0 16751393.323 8905387.132 -17019843.418 10 0 60933 37800.00000 0 18044932.839 10384331.206 -14705151.077 10 0 60933 38700.00000 0 19237654.772 11542127.701 -12104184.454 10 0 60933 39600.00000 0 20269292.695 12378454.169 -9267631.919 10 0 60933 40500.00000 0 21082840.005 12905597.106 -6250750.496 10 0 60933 41400.00000 0 21627019.773 13147670.860 -3112279.620 10 0 60933 42300.00000 0 21858529.624 13139345.594 86711.753 10 0 60933 43200.00000 0 21743966.652 12924140.088 3284021.215 10 0 60933 44100.00000 0 21261351.155 12552353.553 6417527.980 10 0 60933 45000.00000 0 20401185.171 12078725.556 9426402.550 10 0 60933 45900.00000 0 19167001.723 11559924.385 12252286.990 10 0 60933 46800.00000 0 17575382.191 11051970.831 14840422.837 10 0 60933 47700.00000 0 15655441.719 10607706.640 17140704.984 10 0 60933 48600.00000 0 13447804.682 10274414.322 19108641.861 10 0 60933 49500.00000 0 11003113.296 10091688.166 20706204.316 10 0 60933 50400.00000 0 8380131.561 10089645.297 21902548.069 10 0 60933 51300.00000 0 5643523.027 10287551.067 22674597.172 10 0 60933 52200.00000 0 2861393.869 10692915.623 23007478.609 10 0 60933 53100.00000 0 102702.025 11301098.862 22894800.830 10 0 60933 54000.00000 0 -2565361.766 12095439.964 22338771.798 10 0 60933 54900.00000 0 -5079914.301 13047906.119 21350154.769 10 0 60933 55800.00000 0 -7384738.196 14120233.775 19948062.752 10 0 60933 56700.00000 0 -9432362.168 15265515.455 18159595.246 10 0 60933 57600.00000 0 -11185778.634 16430166.879 16019323.481 10 0 60933 58500.00000 0 -12619728.580 17556193.228 13568633.064 10 0 60933 59400.00000 0 -13721501.214 18583660.829 10854935.443 10 0 60933 60300.00000 0 -14491215.706 19453271.610 7930762.129 10 0 60933 61200.00000 0 -14941573.523 20108932.939 4852758.011 10 0 60933 62100.00000 0 -15097091.776 20500215.121 1680592.210 10 0 60933 63000.00000 0 -14992849.616 20584592.935 -1524193.154 10 0 60933 63900.00000 0 -14672800.192 20329376.118 -4699374.321 10 0 60933 64800.00000 0 -14187719.088 19713246.305 -7783254.337 10 0 60933 65700.00000 0 -13592875.726 18727334.092 -10715864.888 10 0 60933 66600.00000 0 -12945526.196 17375789.034 -13440137.631 10 0 60933 67500.00000 0 -12302333.772 15675816.599 -15903021.632 10 0 60933 68400.00000 0 -11716826.733 13657178.532 -18056524.430 10 0 60933 69300.00000 0 -11237001.698 11361175.774 -19858655.668 10 0 60933 70200.00000 0 -10903174.688 8839154.949 -21274254.243 10 0 60933 71100.00000 0 -10746171.711 6150599.644 -22275682.189 10 0 60933 72000.00000 0 -10785936.312 3360885.338 -22843371.203 10 0 60933 72900.00000 0 -11030613.849 538791.105 -22966210.716 10 0 60933 73800.00000 0 -11476151.983 -2246128.436 -22641769.532 10 0 60933 74700.00000 0 -12106434.923 -4926201.473 -21876346.416 10 0 60933 75600.00000 0 -12893946.202 -7438216.824 -20684848.415 10 0 60933 76500.00000 0 -13800932.214 -9725813.845 -19090499.139 10 0 60933 77400.00000 0 -14781017.360 -11741584.790 -17124382.671 10 0 60933 78300.00000 0 -15781202.275 -13448802.256 -14824832.120 10 0 60933 79200.00000 0 -16744160.251 -14822700.166 -12236675.034 10 0 60933 80100.00000 0 -17610734.114 -15851255.663 -9410350.890 10 0 60933 81000.00000 0 -18322527.265 -16535440.568 -6400918.542 10 0 60933 81900.00000 0 -18824478.576 -16888933.547 -3266973.838 10 0 60933 82800.00000 0 -19067311.623 -16937307.096 -69499.463 10 0 60933 83700.00000 0 -19009754.199 -16716725.684 3129329.558 10 0 60933 84600.00000 0 -18620434.085 -16272212.051 6267360.562 10 0 60933 85500.00000 0 -17879371.000 -15655556.738 9283673.706 10 0 60934 0.00000 0 -16779002.126 -14922960.730 12119763.969 10 0 60934 900.00000 0 -15324697.720 -14132511.477 14720673.091 10 0 60934 1800.00000 0 -13534747.110 -13341600.396 17036046.010 10 0 60934 2700.00000 0 -11439814.052 -12604389.540 19021097.048 10 0 60934 3600.00000 0 -9081885.818 -11969434.656 20637464.335 10 0 60934 4500.00000 0 -6512759.305 -11477563.501 21853938.748 10 0 60934 5400.00000 0 -3792126.873 -11160097.534 22647054.426 10 0 60934 6300.00000 0 -985340.725 -11037490.470 23001530.843 10 0 60934 7200.00000 0 1839052.567 -11118439.710 22910559.121 10 0 60934 8100.00000 0 4611906.623 -11399507.003 22375927.994 10 0 60934 9000.00000 0 7266093.173 -11865263.715 21407987.536 10 0 60934 9900.00000 0 9739036.686 -12488954.551 20025451.429 10 0 60934 10800.00000 0 11975062.483 -13233652.216 18255041.272 10 0 60934 11700.00000 0 13927462.638 -14053855.374 16130979.002 10 0 60934 12600.00000 0 15560195.226 -14897463.841 13694336.198 10 0 60934 13500.00000 0 16849147.327 -15708049.171 10992251.591 10 0 60934 14400.00000 0 17782909.826 -16427326.320 8077030.587 10 0 60934 15300.00000 0 18363031.990 -16997723.209 5005143.027 10 0 60934 16200.00000 0 18603745.185 -17364940.511 1836137.561 10 0 60934 17100.00000 0 18531167.138 -17480393.808 -1368507.082 10 0 60934 18000.00000 0 18182019.838 -17303434.684 -4546572.045 10 0 60934 18900.00000 0 17601914.696 -16803256.072 -7636306.515 10 0 60934 19800.00000 0 16843276.957 -15960400.071 -10577630.434 10 0 60934 20700.00000 0 15962996.795 -14767802.838 -13313307.880 10 0 60934 21600.00000 0 15019906.324 -13231330.522 -15790067.652 10 0 60934 22500.00000 0 14072189.332 -11369781.505 -17959648.563 10 0 60934 23400.00000 0 13174833.644 -9214352.786 -19779748.260 10 0 60934 24300.00000 0 12377234.277 -6807590.965 -21214856.430 10 0 60934 25200.00000 0 11721049.336 -4201870.092 -22236955.492 10 0 60934 26100.00000 0 11238399.877 -1457458.792 -22826074.540 10 0 60934 27000.00000 0 10950490.371 1359743.582 -22970685.302 10 0 60934 27900.00000 0 10866708.581 4180707.889 -22667931.977 10 0 60934 28800.00000 0 10984243.206 6935909.231 -21923690.185 10 0 60934 29700.00000 0 11288235.645 9557984.377 -20752453.622 10 0 60934 30600.00000 0 11752459.423 11984301.817 -19177050.497 10 0 60934 31500.00000 0 12340498.335 14159337.202 -17228195.248 10 0 60934 32400.00000 0 13007373.009 16036755.186 -14943884.399 10 0 60934 33300.00000 0 13701546.434 17581111.025 -12368648.602 10 0 60934 34200.00000 0 14367222.768 18769101.410 -9552675.971 10 0 60934 35100.00000 0 14946841.209 19590313.145 -6550824.464 10 0 60934 36000.00000 0 15383658.412 20047439.672 -3421543.392 10 0 60934 36900.00000 0 15624309.271 20155958.023 -225726.099 10 0 60934 37800.00000 0 15621236.931 19943281.748 2974482.893 10 0 60934 38700.00000 0 15334888.761 19447427.482 6116902.101 10 0 60934 39600.00000 0 14735585.147 18715253.311 9140524.263 10 0 60934 40500.00000 0 13804982.191 17800344.908 11986700.458 10 0 60934 41400.00000 0 12537066.791 16760639.892 14600274.063 10 0 60934 42300.00000 0 10938642.478 15655891.370 16930642.744 10 0 60934 43200.00000 0 9029285.853 14545077.807 18932728.582 10 0 60934 44100.00000 0 6840775.583 13483867.925 20567838.555 10 0 60934 45000.00000 0 4416017.745 12522246.476 21804399.952 10 0 60934 45900.00000 0 1807511.957 11702399.463 22618557.927 10 0 60934 46800.00000 0 -924578.636 11056946.118 22994625.024 10 0 60934 47700.00000 0 -3714674.396 10607590.368 22925375.239 10 0 60934 48600.00000 0 -6494251.465 10364246.947 22412177.866 10 0 60934 49500.00000 0 -9194438.463 10324677.699 21464969.147 10 0 60934 50400.00000 0 -11748631.791 10474652.649 20102062.350 10 0 60934 51300.00000 0 -14095022.963 10788628.848 18349799.652 10 0 60934 52200.00000 0 -16178934.841 11230918.728 16242051.780 10 0 60934 53100.00000 0 -17954871.176 11757299.511 13819574.048 10 0 60934 54000.00000 0 -19388195.357 12316996.848 11129229.994 10 0 60934 54900.00000 0 -20456369.160 12854960.187 8223096.277 10 0 60934 55800.00000 0 -21149700.098 13314334.877 5157464.982 10 0 60934 56700.00000 0 -21471566.150 13639027.397 1991761.571 10 0 60934 57600.00000 0 -21438108.126 13776255.726 -1212601.314 10 0 60934 58500.00000 0 -21077402.154 13678976.938 -4393412.370 10 0 60934 59400.00000 0 -20428146.531 13308088.770 -7488869.506 10 0 60934 60300.00000 0 -19537917.743 12634310.972 -10438783.425 10 0 60934 61200.00000 0 -18461068.770 11639665.384 -13185752.998 10 0 60934 62100.00000 0 -17256358.109 10318490.332 -15676288.966 10 0 60934 63000.00000 0 -15984409.523 8677944.428 -17861863.381 10 0 60934 63900.00000 0 -14705109.883 6737976.372 -19699863.567 10 0 60934 64800.00000 0 -13475055.214 4530759.884 -21154431.326 10 0 60934 65700.00000 0 -12345153.099 2099615.489 -22197170.410 10 0 60934 66600.00000 0 -11358483.037 -502537.275 -22807707.857 10 0 60934 67500.00000 0 -10548505.358 -3215133.818 -22974097.833 10 0 60934 68400.00000 0 -9937694.562 -5972243.922 -22693059.672 10 0 60934 69300.00000 0 -9536654.855 -8705082.017 -21970045.192 10 0 60934 70200.00000 0 -9343755.134 -11344643.860 -20819133.707 10 0 60934 71100.00000 0 -9345298.563 -13824359.698 -19262756.653 10 0 60934 72000.00000 0 -9516219.064 -16082653.115 -17331257.162 10 0 60934 72900.00000 0 -9821274.580 -18065298.703 -15062293.272 10 0 60934 73800.00000 0 -10216685.725 -19727480.136 -12500096.684 10 0 60934 74700.00000 0 -10652149.427 -21035462.817 -9694602.004 10 0 60934 75600.00000 0 -11073141.134 -21967811.716 -6700464.110 10 0 60934 76500.00000 0 -11423406.919 -22516104.285 -3575983.624 10 0 60934 77400.00000 0 -11647538.789 -22685109.842 -381962.406 10 0 60934 78300.00000 0 -11693523.121 -22492429.513 2819487.622 10 0 60934 79200.00000 0 -11515153.590 -21967613.681 5966158.251 10 0 60934 80100.00000 0 -11074205.944 -21150795.953 8996956.888 10 0 60934 81000.00000 0 -10342282.478 -20090902.898 11853092.560 10 0 60934 81900.00000 0 -9302248.312 -18843516.394 14479212.850 10 0 60934 82800.00000 0 -7949199.108 -17468479.579 16824469.888 10 0 60934 83700.00000 0 -6290919.689 -16027347.655 18843495.395 10 0 60934 84600.00000 0 -4347814.458 -14580790.557 20497266.899 10 0 60934 85500.00000 0 -2152312.476 -13186055.983 21753849.582 99